Location: Unspecified
(49.2170°N, 0.0000°E)
Time: 05:13:11
(UTC+00:00)

Courier 1B Rocket - Pass Details

Date: 28 January 2021
Orbit: 920 x 1202 km, 28.3° (Epoch: 05 March)

Event Time Altitude Azimuth Distance (km) Brightness Sun altitude
Rises 07:16:25 0° 231° (SW) 3,672 7.7 -3.8°
Reaches altitude 10° 07:21:09 10° 200° (SSW) 2,792 7.5 -3.1°
Maximum altitude 07:23:22 12° 181° (S) 2,700 7.7 -2.7°
Drops below altitude 10° 07:25:37 10° 162° (SSE) 2,860 8.2 -2.4°
Sets 07:30:39 0° 133° (SE) 3,894 10.0 -1.7°
